Latest Coastal Weather Observations for Melbourne

IDV60701

Issued at 7:55 pm EST Wednesday 23 April 2014 (issued every 10 minutes, with the page automatically refreshed every 10 minutes)

About coastal observations | Map of coastal stations | Coastal observations for VIC | Marine services | Other Formats
Station Details ID: 086071 Name: MELBOURNE REGIONAL OFFICE Lat: -37.81 Lon: 144.97 Height: 31.15 m
Data from the previous 72 hours. | See also: Recent months at Melbourne
Date/Time
EST
Temp

°C
Wind Pressure Rain
since 9am
mm
Weather Cloud Vis
km
Sea
Height
m
Swell
Dir
 
Speed
knots
Gust
knots
hPa Trend Height
m
Period
s
Dir
23/07:30pm 16.0 - - - 1013.4 - 0.2 - - - - - - -
23/07:00pm 15.8 - - - 1013.0 - 0.2 - - - - - - -
23/06:30pm 15.9 - - - 1013.0 - 0.2 - - - - - - -
23/06:00pm 16.7 - - - 1012.9 - 0.2 - - - - - - -
23/05:30pm 17.2 - - - 1013.1 - 0.2 - - - - - - -
23/05:00pm 18.0 - - - 1013.1 - 0.2 - - - - - - -
23/04:30pm 18.3 - - - 1013.3 - 0.2 - - - - - - -
23/04:00pm 17.8 - - - 1013.3 - 0.2 - - - - - - -
23/03:30pm 18.1 - - - 1013.4 - 0.2 - - - - - - -
23/03:00pm 18.2 - - - 1013.3 F 0.2 Fine Mostly cloudy 30 - - - -
23/02:30pm 17.9 - - - 1013.6 - 0.2 - - - - - - -
23/02:00pm 17.9 - - - 1013.9 - 0.2 - - - - - - -
23/01:30pm 19.2 - - - 1014.3 - 0.2 - - - - - - -
23/01:00pm 17.5 - - - 1014.9 - 0.2 - - - - - - -
23/12:30pm 18.6 - - - 1015.4 - 0.0 - - - - - - -
23/12:00pm 18.3 - - - 1015.7 F 0.0 Fine Mostly cloudy 30 - - - -
23/11:30am 17.1 - - - 1016.1 - 0.0 - - - - - - -
23/11:00am 16.5 - - - 1016.2 - 0.0 - - - - - - -
23/10:30am 15.9 - - - 1016.9 - 0.0 - - - - - - -
23/10:00am 15.1 - - - 1016.9 - 0.0 - - - - - - -
23/09:30am 13.9 - - - 1017.2 - 0.0 - - - - - - -
23/09:00am 13.2 - - - 1017.1 F 6.0 Fine Partly cloudy 30 - - - -
23/08:30am 13.0 - - - 1016.7 - 6.0 - - - - - - -
23/08:00am 12.3 - - - 1016.7 - 6.0 - - - - - - -
23/07:30am 12.3 - - - 1016.5 - 6.0 - - - - - - -
23/07:00am 12.3 - - - 1016.2 - 6.0 - - - - - - -
23/06:30am 12.4 - - - 1016.2 - 6.0 - - - - - - -
23/06:00am 12.6 - - - 1016.4 - 6.0 - - - - - - -
23/05:30am 12.9 - - - 1016.2 - 6.0 - - - - - - -
23/05:00am 13.2 - - - 1016.2 - 6.0 - - - - - - -
23/04:30am 13.2 - - - 1016.1 - 6.0 - - - - - - -
23/04:00am 13.2 - - - 1016.0 - 6.0 - - - - - - -
23/03:30am 14.0 - - - 1016.1 - 6.0 - - - - - - -
23/03:00am 13.8 - - - 1016.1 - 6.0 - - - - - - -
23/02:30am 14.0 - - - 1016.5 - 6.0 - - - - - - -
23/02:00am 14.0 - - - 1016.6 - 6.0 - - - - - - -
23/01:30am 14.2 - - - 1017.0 - 6.0 - - - - - - -
23/01:00am 13.9 - - - 1017.0 - 6.0 - - - - - - -
23/12:30am 14.1 - - - 1017.2 - 6.0 - - - - - - -
23/12:00am 14.6 - - - 1017.3 - 6.0 - - - - - - -
 
Date/Time
EST
Temp

°C
Wind Pressure Rain
since 9am
mm
Weather Cloud Vis
km
Sea
Height
m
Swell
Dir
 
Speed
knots
Gust
knots
hPa Trend Height
m
Period
s
Dir
22/11:30pm 14.4 - - - 1017.4 - 6.0 - - - - - - -
22/11:00pm 14.6 - - - 1017.7 - 6.0 - - - - - - -
22/10:30pm 14.7 - - - 1017.9 - 6.0 - - - - - - -
22/10:00pm 14.8 - - - 1018.0 - 6.0 - - - - - - -
22/09:30pm 14.4 - - - 1017.7 - 6.0 - - - - - - -
22/09:00pm 14.4 - - - 1017.4 - 6.0 - - - - - - -
22/08:30pm 14.8 - - - 1017.2 - 6.0 - - - - - - -
22/08:00pm 14.3 - - - 1017.2 - 6.0 - - - - - - -
22/07:30pm 14.5 - - - 1016.9 - 6.0 - - - - - - -
22/07:00pm 14.7 - - - 1016.6 - 6.0 - - - - - - -
22/06:30pm 15.0 - - - 1016.3 - 6.0 - - - - - - -
22/06:00pm 14.8 - - - 1015.9 - 6.0 - - - - - - -
22/05:30pm 15.0 - - - 1015.7 - 5.8 - - - - - - -
22/05:00pm 14.9 - - - 1015.4 - 4.8 - - - - - - -
22/04:30pm 15.0 - - - 1015.3 - 4.4 - - - - - - -
22/04:00pm 15.2 - - - 1015.0 - 3.6 - - - - - - -
22/03:30pm 16.6 - - - 1014.9 - 2.8 - - - - - - -
22/03:00pm 16.6 - - - 1014.3 R 2.8 Distant precip. Mostly cloudy 30 - - - -
22/02:30pm 16.3 - - - 1014.3 - 2.8 - - - - - - -
22/02:00pm 16.1 - - - 1014.2 - 2.8 - - - - - - -
22/01:30pm 15.8 - - - 1014.3 - 2.8 - - - - - - -
22/01:00pm 15.9 - - - 1014.5 - 2.8 - - - - - - -
22/12:30pm 15.9 - - - 1014.7 - 2.6 - - - - - - -
22/12:00pm 15.2 - - - 1015.0 S 2.6 Distant precip. Mostly cloudy 30 - - - -
22/11:30am 14.8 - - - 1015.3 - 2.4 - - - - - - -
22/11:00am 14.4 - - - 1015.6 - 2.4 - - - - - - -
22/10:30am 13.8 - - - 1015.3 - 2.4 - - - - - - -
22/10:00am 13.7 - - - 1015.9 - 2.2 - - - - - - -
22/09:30am 13.7 - - - 1015.6 - 0.4 - - - - - - -
22/09:00am 13.3 - - - 1015.5 F 5.6 Rain Cloudy 15 - - - -
22/08:30am 13.7 - - - 1015.7 - 3.8 - - - - - - -
22/08:00am 13.6 - - - 1016.3 - 2.0 - - - - - - -
22/07:30am 16.1 - - - 1015.7 - 0.0 - - - - - - -
22/07:00am 16.2 - - - 1015.1 - 0.0 - - - - - - -
22/06:30am 16.6 - - - 1014.9 - 0.0 - - - - - - -
22/06:00am 16.7 - - - 1015.0 - 0.0 - - - - - - -
22/05:30am 16.8 - - - 1014.6 - 0.0 - - - - - - -
22/05:00am 17.4 - - - 1014.2 - 0.0 - - - - - - -
22/04:30am 17.4 - - - 1012.9 - 0.0 - - - - - - -
22/04:00am 17.6 - - - 1012.4 - 0.0 - - - - - - -
22/03:30am 17.4 - - - 1012.2 - 0.0 - - - - - - -
22/03:00am 17.3 - - - 1012.2 - 0.0 - - - - - - -
22/02:30am 17.5 - - - 1012.6 - 0.0 - - - - - - -
22/02:00am 17.6 - - - 1012.7 - 0.0 - - - - - - -
22/01:30am 17.5 - - - 1012.8 - 0.0 - - - - - - -
22/01:00am 17.4 - - - 1012.8 - 0.0 - - - - - - -
22/12:30am 17.4 - - - 1013.3 - 0.0 - - - - - - -
22/12:00am 17.4 - - - 1013.6 - 0.0 - - - - - - -
 
Date/Time
EST
Temp

°C
Wind Pressure Rain
since 9am
mm
Weather Cloud Vis
km
Sea
Height
m
Swell
Dir
 
Speed
knots
Gust
knots
hPa Trend Height
m
Period
s
Dir
21/11:30pm 17.3 - - - 1014.0 - 0.0 - - - - - - -
21/11:00pm 17.2 - - - 1014.2 - 0.0 - - - - - - -
21/10:30pm 17.2 - - - 1014.3 - 0.0 - - - - - - -
21/10:00pm 17.1 - - - 1014.6 - 0.0 - - - - - - -
21/09:30pm 17.1 - - - 1014.8 - 0.0 - - - - - - -
21/09:00pm 17.2 - - - 1014.7 - 0.0 - - - - - - -
21/08:30pm 17.2 - - - 1015.0 - 0.0 - - - - - - -
21/08:00pm 17.3 - - - 1014.8 - 0.0 - - - - - - -
21/07:30pm 17.2 - - - 1014.7 - 0.0 - - - - - - -
21/07:00pm 17.3 - - - 1014.9 - 0.0 - - - - - - -
21/06:30pm 17.3 - - - 1014.7 - 0.0 - - - - - - -
21/06:00pm 17.5 - - - 1014.3 - 0.0 - - - - - - -
21/05:30pm 17.6 - - - 1014.2 - 0.0 - - - - - - -
21/05:00pm 17.6 - - - 1014.2 - 0.0 - - - - - - -
21/04:30pm 17.7 - - - 1014.6 - 0.0 - - - - - - -
21/04:00pm 18.1 - - - 1014.6 - 0.0 - - - - - - -
21/03:30pm 18.1 - - - 1015.1 - 0.0 - - - - - - -
21/03:00pm 18.0 - - - 1015.8 - 0.0 - - - - - - -
21/02:30pm 17.5 - - - 1016.0 - 0.0 - - - - - - -
21/02:00pm 17.3 - - - 1015.9 - 0.0 - - - - - - -
21/01:30pm 17.8 - - - 1016.0 - 0.0 - - - - - - -
21/01:00pm 17.6 - - - 1016.4 - 0.0 - - - - - - -
21/12:30pm 17.4 - - - 1017.0 - 0.0 - - - - - - -
21/12:00pm 17.5 - - - 1017.3 - 0.0 - - - - - - -
21/11:30am 17.0 - - - 1018.1 - 0.0 - - - - - - -
21/11:00am 16.5 - - - 1018.6 - 0.0 - - - - - - -
21/10:30am 16.2 - - - 1018.9 - 0.0 - - - - - - -
21/10:00am 15.4 - - - 1019.0 - 0.0 - - - - - - -
21/09:30am 14.9 - - - 1019.2 - 0.0 - - - - - - -
21/09:00am 14.3 - - - 1019.4 - 0.0 - - - - - - -
21/08:30am 14.1 - - - 1019.2 - 0.0 - - - - - - -
21/08:00am 13.3 - - - 1019.0 - 0.0 - - - - - - -
21/07:30am 12.7 - - - 1019.1 - 0.0 - - - - - - -
21/07:00am 12.6 - - - 1018.7 - 0.0 - - - - - - -
21/06:30am 12.7 - - - 1018.7 - 0.0 - - - - - - -
21/06:00am 12.7 - - - 1018.5 - 0.0 - - - - - - -
21/05:30am 12.7 - - - 1018.3 - 0.0 - - - - - - -
21/05:00am 12.8 - - - 1018.3 - 0.0 - - - - - - -
21/04:30am 12.8 - - - 1018.1 - 0.0 - - - - - - -
21/04:00am 12.8 - - - 1018.0 - 0.0 - - - - - - -
21/03:30am 12.7 - - - 1018.0 - 0.0 - - - - - - -
21/03:00am 12.8 - - - 1017.8 - 0.0 - - - - - - -
21/02:30am 13.1 - - - 1017.9 - 0.0 - - - - - - -
21/02:00am 13.5 - - - 1018.0 - 0.0 - - - - - - -
21/01:30am 13.8 - - - 1018.1 - 0.0 - - - - - - -
21/01:00am 14.3 - - - 1018.1 - 0.0 - - - - - - -
21/12:30am 14.4 - - - 1018.1 - 0.0 - - - - - - -
21/12:00am 14.2 - - - 1017.9 - 0.0 - - - - - - -
 
Date/Time
EST
Temp

°C
Wind Pressure Rain
since 9am
mm
Weather Cloud Vis
km
Sea
Height
m
Swell
Dir
 
Speed
knots
Gust
knots
hPa Trend Height
m
Period
s
Dir
20/11:30pm 14.2 - - - 1018.1 - 0.0 - - - - - - -
20/11:00pm 14.3 - - - 1018.2 - 0.0 - - - - - - -
20/10:30pm 14.5 - - - 1018.3 - 0.0 - - - - - - -
20/10:00pm 14.8 - - - 1018.3 - 0.0 - - - - - - -
20/09:30pm 15.1 - - - 1018.2 - 0.0 - - - - - - -
20/09:00pm 15.1 - - - 1018.1 - 0.0 - - - - - - -
20/08:30pm 15.3 - - - 1018.1 - 0.0 - - - - - - -
20/08:00pm 15.3 - - - 1017.9 - 0.0 - - - - - - -

Other Formats:

Comma delimited format used in spreadsheet applications
http://www.bom.gov.au/fwo/IDV60701/IDV60701.94868.axf

JavaScript Object Notation format (JSON) in row-major order
http://www.bom.gov.au/fwo/IDV60701/IDV60701.94868.json